{"data":{"norad_id":55304,"epoch":"2026-09-20T08:38:19.680864Z","epoch_age_seconds":105472,"freshness":"FRESH","line1":"1 55304U 23010AM  26263.35995001  .00000451  00000+0  45628-4 0  9992","line2":"2 55304  69.9980 253.4263 0003478 269.5208  90.5553 14.98333123202434","mean_motion":14.98333123,"eccentricity":0.0003478,"inclination_deg":69.998,"raan_deg":253.4263,"arg_perigee_deg":269.5208,"mean_anomaly_deg":90.5553,"bstar":4.5628e-5,"rev_number":20243,"period_min":96.106798808318,"perigee_km":569.62895961275,"apogee_km":574.46350706986,"semimajor_km":6950.1832333413,"source":"CELESTRAK","updated_at":"2026-09-21T09:00:33.172565Z"}}